Regional Weather Roundup
Issued by NWS

Home | Current Version | Previous Version | Text Only | Print | Product List | Glossary Off
Versions: 1 2 3 4 5 6 7 8 9 10 11 12 13 14 15 16 17 18 19 20 21 22 23 24 25 26 27

000
ASUS45 KSLC 230110
RWRUT

UTAH REGIONAL WEATHER ROUNDUP
NATIONAL WEATHER SERVICE SALT LAKE CITY UT
700 PM MDT WED MAR 22 2017

UTZ001>011-023>025-230200-

NORTHERN UTAH

CITY           SKY/WX    TMP DP  RH WIND       PRES   REMARKS
BRIGHAM CITY     N/A     55  43  64 NW3       29.80S
HILL AFB       MOCLDY    49  43  77 E10       29.78F
LOGAN          CLOUDY    51  42  71 SE7       29.80F
OGDEN          CLOUDY    52  45  77 E7        29.76F
SALT LAKE CITY CLOUDY    56  43  61 NW3       29.76F
WENDOVER       MOCLDY    55  36  47 N15       29.77S
HEBER CITY     CLOUDY    54  32  43 SE17G25   29.77S

$$

UTZ011>015-024>027-230200-

CENTRAL/NORTHEAST UTAH

CITY           SKY/WX    TMP DP  RH WIND       PRES   REMARKS
PROVO AIRPORT  CLOUDY    56  45  66 NW7       29.78R
MOAB/CANYONLAN CLOUDY    68  28  22 S17       29.76S
DELTA          CLOUDY    59  28  31 SW12      29.75F
PRICE          CLOUDY    54  34  46 NW13G26   29.82R
RICHFIELD      MOCLDY    54  37  54 S8G15     29.85S
ROOSEVELT      CLOUDY    59  32  36 S16G24    29.83S
VERNAL         CLOUDY    58  36  43 N6        29.82S

$$

UTZ013>016-019>022-027-230200-

SOUTHERN UTAH

CITY           SKY/WX    TMP DP  RH WIND       PRES   REMARKS
BRYCE CANYON   CLOUDY    36  34  92 N6        29.91F WCI  31
CEDAR CITY     CLOUDY    54  32  43 S17G30    29.80F
MILFORD        CLOUDY    60  32  34 SW21      29.77F
ST GEORGE      CLOUDY    63  39  41 SW26      29.76R
HANKSVILLE     CLOUDY    63  34  34 SW17      29.83S
KANAB          CLOUDY    57  43  58 W2        29.83F
BLANDING       CLOUDY    61  28  28 S3        29.94F

$$

REGIONAL REPORTS     COLORADO/ARIZONA

CITY           SKY/WX    TMP DP  RH WIND       PRES   REMARKS
CRAIG, CO      CLOUDY    57  27  31 S16       29.90R
GRAND JUNCTION CLOUDY    67  26  21 SW17G32   29.82F
RIFLE, CO      CLOUDY    58  35  42 SE28G35   29.93R HAZE
MONTROSE, CO   CLOUDY    63  24  22 CALM      29.90F
CORTEZ, CO     CLOUDY    62  28  27 S5        29.90F
COLORADO CITY    N/A     63  37  39 SW12      29.83F
PAGE, AZ       LGT RAIN  61  32  33 W5        29.81R
GRAND CANYON   CLOUDY    47  43  86 S15G25    29.91F THUNDER
KINGMAN, AZ    RAIN      50  46  86 SW21      29.92R FOG
FLAGSTAFF, AZ  CLOUDY    48  37  65 S8        29.96F

$$

REGIONAL REPORTS    NEVADA/IDAHO/WYOMING

CITY           SKY/WX    TMP DP  RH WIND       PRES   REMARKS
LAS VEGAS, NV  CLOUDY    68  15  13 SW15G24   29.75S
ELY, NY        PTCLDY    51   9  18 S15       29.81R
ELKO, NV       LGT RAIN  37  34  89 E6        29.91S WCI  32
POCATELLO, ID  PTCLDY    51  39  63 W3        29.85S
BURLEY, ID     CLOUDY    46  37  71 W13G21    29.85S
FORT BRIDGER,  CLOUDY    47  37  69 N7        29.90S
EVANSTON, WY   CLOUDY    43  33  68 NW8       29.87S
ROCK SPRINGS,  CLOUDY    46  40  79 NW13      29.85F
KEMMERER, WY     N/A     39  34  81 NW5       29.89S

$$




USA.gov is the U.S. government's official web portal to all federal, state and local government web resources and services.